Weather in Ryazan

Russia / Ryazan Oblast     54°37′45″N   39°44′10″E
temp.,
°C
wind,
m/s
gust,
m/s
humid.,
%
clouds,
%
prec.,
mm/h
press.,
hPa
HPBL,
m
1 march, mon
mon100:00−9ne229592 0.0 102125
03:00−11n129557 0.0 102321
06:00−10nw129790 0.1 102421
09:00−8wsw119688 0.1 102544
12:00−3wsw369392 0.1 1025379
15:00−1wsw579194 0.1 1023666
18:00−1wsw51091100 0.1 1021563
21:000wsw61390100 0.1 1018672
2 march, tue
tue200:00+1wsw61392100 0.0 1015663
03:00+1w51394100 0.0 1013626
06:00+1w61394100 0.0 1009717
09:00+1wnw61398100 0.1 1009734
12:00+1wnw61192100 0.2 1008901
15:00+1wnw5109193 0.3 1008864
18:00−1nw4128697 0.1 1008478
21:00−2nw4118895 0.2 1009430
3 march, wed
wed300:00−2nw5129398 0.2 1010679
03:00−3nw5119499 0.4 1012665
06:00−6nw5139065 0.0 1013583
09:00−6nw6128683 0.1 1015756
12:00−3nw6107748 0.0 1015937
15:00−1wnw6118561 0.0 10141064
18:00−2wnw5129196 0.1 1014570
21:00−2w5129195 0.1 1014630
4 march, thu
thu400:00−3w4119295 0.1 1013442
03:00−2wsw5119096 0.1 1011756
06:00−2wsw61488100 0.0 1008528
09:00−1wsw71786100 0.0 1005716
12:00+1wsw81581100 0.0 10021005
15:00+2wsw7148799 0.0 10001109
18:00+1w61390100 0.0 999905
21:000w51296100 0.1 1000622
5 march, fri
fri500:00−2nw3782100 0.4 1001236
03:00−4nw2587100 0.4 1003162
06:00−5nnw2591100 0.0 1005151
09:00−6nnw2390100 0.0 1007152
12:00−3nnw1179100 0.0 1007451
15:00−2nnw0176100 0.0 1008590
18:00−4nw0186100 0.0 100721
21:00−4nne2290100 0.0 100859